Miscellaneous Local Product
Issued by NWS Hastings, NE

Home | Current Version | Previous Version | Text Only | Print | Product List | Glossary On
Versions: 1 2 3 4 5 6 7 8 9 10 11 12 13 14 15 16 17 18 19 20 21 22 23 24 25 26 27 28 29 30 31 32 33 34 35 36 37 38 39 40 41 42 43 44 45 46 47 48 49 50
000
AXUS43 KGID 292002
MISGRI

GID CWA HOURLY WEATHER ROUNDUP
NATIONAL WEATHER SERVICE HASTINGS NE
300 PM CDT SUN MAR 29 2015

NOTE: "FAIR" INDICATES FEW OR NO CLOUDS BELOW 12,000 FEET WITH NO
SIGNIFICANT WEATHER AND/OR OBSTRUCTIONS TO VISIBILITY.

...SOUTH CENTRAL NEBRASKA...

CITY           SKY/WX    TMP DP  RH WIND       PRES   REMARKS
GRAND ISLAND   SUNNY     62  25  24 N23G32    30.11R
HASTINGS       SUNNY     64  23  21 N23G37    30.10S
KEARNEY        SUNNY     63  18  17 N30       30.12S
ORD            SUNNY     62  13  14 N24G33    30.10F
YORK           SUNNY     59  32  36 N17G31    30.09S
AURORA         SUNNY     62  31  31 N21G31    30.09F
LEXINGTON      SUNNY     63   9  12 N25G33    30.15F
HOLDREGE       SUNNY     63  11  13 N20G32    30.14S
HEBRON         SUNNY     65  31  28 N26G35    30.07F

...NEBRASKA PANHANDLE...

CITY           SKY/WX    TMP DP  RH WIND       PRES   REMARKS
CHADRON        SUNNY     62  28  27 NW18G24   30.15F
ALLIANCE       SUNNY     60  24  25 NW20G26   30.17F
SCOTTSBLUFF    SUNNY     62  25  24 NW17G24   30.19F
SIDNEY         SUNNY     61  25  25 N13       30.22F

...WESTERN AND NORTH CENTRAL NEBRASKA...

CITY           SKY/WX    TMP DP  RH WIND       PRES   REMARKS
VALENTINE      SUNNY     59  18  20 NW22G29   30.14F
AINSWORTH      SUNNY     58  17  20 NW20G29   30.14S
ONEILL         SUNNY     59  24  26 N23G32    30.10S
BROKEN BOW     SUNNY     63  15  15 N23G33    30.13F
IMPERIAL         N/A     62  23  22 N15G26    30.20F
NORTH PLATTE   SUNNY     63  17  17 NW17G25   30.18S
MCCOOK         SUNNY     66  21  18 N21G30    30.17F

...EASTERN NEBRASKA...

CITY           SKY/WX    TMP DP  RH WIND       PRES   REMARKS
NORFOLK        SUNNY     60  28  29 N24G31    30.05S
SO SIOUX CITY  SUNNY     61  30  31 NW28G36   29.98S
TEKAMAH        SUNNY     61  34  36 W23G37    30.02F
COLUMBUS       SUNNY     61  34  36 NW25      30.08F
ALBION         SUNNY     59  24  25 N18G29    30.08F
OMAHA EPPLEY   MOSUNNY   60  37  42 NW23G32   30.01F
OFFUTT AFB     MOSUNNY   59  37  45 NW22G33   30.02F
MILLARD        MOSUNNY   57  38  48 NW18G28   30.04S
LINCOLN        SUNNY     61  35  37 NW24G39   30.07F
NEBRASKA CITY  PTSUNNY   57  36  45 NW22G32   30.04R
BEATRICE       SUNNY     61  38  42 N29G37    30.07R
FALLS CITY     MOSUNNY   62  40  44 NW26G38   30.02R

...NORTHERN KANSAS...

CITY           SKY/WX    TMP DP  RH WIND       PRES   REMARKS
GOODLAND       SUNNY     64  21  19 N23G31    30.20F
HILL CITY      SUNNY     67  25  20 N22G33    30.16F
NORTON         CLEAR     64  16  15 NW17G28   30.15F
PHILLIPSBURG   SUNNY     70  25  18 NW16G26   30.13F
SMITH CENTER   SUNNY     66  25  20 N29       30.11F
BELOIT         SUNNY     70  30  23 NW25G33   30.08F
HAYS           SUNNY     70  27  19 N24G35    30.13F
RUSSELL        SUNNY     69  29  22 N23G38    30.10F
CONCORDIA      SUNNY     68  34  28 N22G33    30.07S
SALINA         SUNNY     73  36  25 NW24G33   30.06F
TOPEKA         MOSUNNY   69  40  34 NW20G35   30.01R



USA.gov is the U.S. government's official web portal to all federal, state and local government web resources and services.